Location: Chandolas
(44.4033°N, 4.2533°E)
Time: 11:58:39
(UTC+00:00)

Cosmos 1484 Rocket - Pass Details

Date: 15 November 2019
Orbit: 507 x 559 km, 97.4° (Epoch: 06 December)

Event Time Altitude Azimuth Distance (km) Brightness Sun altitude
Rises 04:20:32 0° 19° (NNE) 2,743 6.6 -24.6°
Reaches altitude 10° 04:22:47 10° 27° (NNE) 1,848 5.8 -24.2°
Maximum altitude 04:26:33 40° 98° (E) 840 4.2 -23.5°
Drops below altitude 10° 04:30:19 10° 168° (SSE) 1,841 5.7 -22.8°
Sets 04:32:33 0° 176° (S) 2,730 6.5 -22.4°
